• In Austria
  • List of Countries
  • For 7 days
  • Water Temperature
  • Satellite Maps
  • Weather Map
  • News
  • Weather Widgets
  • user-avatar
    Login

    Hourly Weather Harrisburg

    Today, 22 September, Saturday

    Time Temperature Precipitation Wind Pressure Humidity
    00:00 +22°C° 0.3 mm 3 mps 752 mmHg 96%
    01:00 +22°C° 0.3 mm 3 mps 753 mmHg 96%
    02:00 +22°C° 0 mm 3 mps 753 mmHg 95%
    03:00 +21°C° 0 mm 4 mps 753 mmHg 94%
    04:00 +20°C° 0 mm 4 mps 754 mmHg 92%
    05:00 +19°C° 0 mm 4 mps 754 mmHg 91%
    06:00 +17°C° 0 mm 4 mps 755 mmHg 89%
    07:00 +16°C° 0 mm 3 mps 756 mmHg 87%
    08:00 +17°C° 0 mm 3 mps 756 mmHg 81%
    09:00 +18°C° 0 mm 4 mps 756 mmHg 75%
    10:00 +18°C° 0 mm 4 mps 757 mmHg 69%
    11:00 +19°C° 0 mm 3 mps 757 mmHg 67%
    12:00 +20°C° 0 mm 3 mps 757 mmHg 65%
    13:00 +21°C° 0 mm 3 mps 757 mmHg 63%
    14:00 +20°C° 0 mm 2 mps 756 mmHg 65%
    15:00 +20°C° 0 mm 2 mps 756 mmHg 68%
    16:00 +20°C° 0 mm 2 mps 756 mmHg 71%
    17:00 +19°C° 0 mm 2 mps 756 mmHg 71%
    18:00 +18°C° 0 mm 2 mps 756 mmHg 72%
    19:00 +17°C° 0 mm 2 mps 757 mmHg 72%
    20:00 +18°C° 0.2 mm 1 mps 757 mmHg 75%
    21:00 +16°C° 0.2 mm 1 mps 757 mmHg 77%
    22:00 +16°C° 0.2 mm 1 mps 757 mmHg 80%
    23:00 +15°C° 1.2 mm 1 mps 757 mmHg 84%

    Tomorrow, 23 September, Sunday

    Time Temperature Precipitation Wind Pressure Humidity
    00:00 +15°C° 1.2 mm 1 mps 757 mmHg 87%
    01:00 +14°C° 1.2 mm 0 mps 757 mmHg 91%
    02:00 +13°C° 1.4 mm 0 mps 757 mmHg 92%
    03:00 +13°C° 1.4 mm 0 mps 757 mmHg 93%
    04:00 +13°C° 1.4 mm 0 mps 757 mmHg 94%
    05:00 +13°C° 0.7 mm 0 mps 757 mmHg 94%
    06:00 +13°C° 0.7 mm 0 mps 758 mmHg 94%
    07:00 +14°C° 0.7 mm 1 mps 758 mmHg 94%
    08:00 +15°C° 0 mm 1 mps 758 mmHg 89%
    09:00 +16°C° 0 mm 1 mps 758 mmHg 85%
    10:00 +18°C° 0 mm 1 mps 759 mmHg 80%
    11:00 +19°C° 0 mm 1 mps 758 mmHg 75%
    12:00 +20°C° 0 mm 1 mps 758 mmHg 71%
    13:00 +21°C° 0 mm 1 mps 758 mmHg 66%
    14:00 +21°C° 0 mm 1 mps 758 mmHg 67%
    15:00 +21°C° 0 mm 1 mps 758 mmHg 69%
    16:00 +21°C° 0 mm 1 mps 758 mmHg 70%
    17:00 +19°C° 0 mm 1 mps 758 mmHg 74%
    18:00 +18°C° 0 mm 1 mps 759 mmHg 77%
    19:00 +15°C° 0 mm 1 mps 759 mmHg 80%
    20:00 +15°C° 0 mm 1 mps 759 mmHg 82%
    21:00 +14°C° 0 mm 1 mps 760 mmHg 83%
    22:00 +14°C° 0 mm 1 mps 760 mmHg 84%
    23:00 +13°C° 0 mm 1 mps 760 mmHg 84%

    Day after tomorrow, 24 September, Monday

    Time Temperature Precipitation Wind Pressure Humidity
    00:00 +13°C° 0 mm 1 mps 760 mmHg 84%
    01:00 +13°C° 0 mm 1 mps 761 mmHg 85%
    02:00 +12°C° 0 mm 1 mps 761 mmHg 85%
    03:00 +12°C° 0 mm 1 mps 761 mmHg 86%
    04:00 +11°C° 0 mm 1 mps 761 mmHg 87%
    05:00 +12°C° 0 mm 2 mps 762 mmHg 86%
    06:00 +12°C° 0 mm 2 mps 762 mmHg 85%
    07:00 +12°C° 0 mm 2 mps 763 mmHg 84%
    08:00 +13°C° 0 mm 3 mps 763 mmHg 78%
    09:00 +15°C° 0 mm 4 mps 763 mmHg 72%
    10:00 +18°C° 0 mm 4 mps 763 mmHg 67%
    11:00 +19°C° 0 mm 4 mps 763 mmHg 70%
    12:00 +19°C° 0 mm 5 mps 763 mmHg 73%
    13:00 +20°C° 0 mm 5 mps 763 mmHg 76%
    14:00 +19°C° 0 mm 5 mps 763 mmHg 77%
    15:00 +19°C° 0 mm 5 mps 763 mmHg 78%
    16:00 +19°C° 0 mm 4 mps 762 mmHg 80%
    17:00 +18°C° 0 mm 4 mps 762 mmHg 81%
    18:00 +17°C° 0 mm 4 mps 763 mmHg 82%
    19:00 +17°C° 0 mm 4 mps 763 mmHg 83%
    20:00 +15°C° 0.2 mm 4 mps 763 mmHg 85%
    21:00 +15°C° 0.2 mm 4 mps 763 mmHg 88%
    22:00 +15°C° 0.2 mm 4 mps 763 mmHg 90%
    23:00 +15°C° 0.6 mm 4 mps 762 mmHg 92%

    25 September, Tuesday

    Time Temperature Precipitation Wind Pressure Humidity
    00:00 +15°C° 0.6 mm 4 mps 762 mmHg 94%
    01:00 +15°C° 0.6 mm 4 mps 762 mmHg 96%
    02:00 +15°C° 0.7 mm 4 mps 761 mmHg 96%
    03:00 +15°C° 0.7 mm 4 mps 761 mmHg 96%
    04:00 +15°C° 0.7 mm 4 mps 760 mmHg 96%
    05:00 +17°C° 1.5 mm 4 mps 760 mmHg 96%
    06:00 +17°C° 1.5 mm 4 mps 760 mmHg 96%
    07:00 +17°C° 1.5 mm 4 mps 760 mmHg 96%
    08:00 +18°C° 0.6 mm 4 mps 760 mmHg 95%
    09:00 +19°C° 0.6 mm 4 mps 760 mmHg 95%
    10:00 +19°C° 0.6 mm 4 mps 760 mmHg 94%
    11:00 +20°C° 0.2 mm 4 mps 759 mmHg 94%
    12:00 +20°C° 0.2 mm 3 mps 758 mmHg 94%
    13:00 +21°C° 0.2 mm 3 mps 758 mmHg 93%
    14:00 +21°C° 0.1 mm 3 mps 757 mmHg 93%
    15:00 +22°C° 0.1 mm 3 mps 757 mmHg 93%
    16:00 +22°C° 0.1 mm 3 mps 756 mmHg 93%
    17:00 +21°C° 0 mm 2 mps 756 mmHg 95%
    18:00 +20°C° 0 mm 2 mps 756 mmHg 96%
    19:00 +20°C° 0 mm 2 mps 756 mmHg 98%
    20:00 +21°C° 0 mm 1 mps 756 mmHg 98%
    21:00 +21°C° 0 mm 1 mps 756 mmHg 98%
    22:00 +21°C° 0 mm 1 mps 755 mmHg 98%
    23:00 +21°C° 0 mm 1 mps 755 mmHg 98%

    26 September, Wednesday

    Time Temperature Precipitation Wind Pressure Humidity
    00:00 +21°C° 0 mm 1 mps 755 mmHg 98%
    01:00 +21°C° 0 mm 1 mps 754 mmHg 98%
    02:00 +21°C° 0 mm 1 mps 754 mmHg 98%
    03:00 +22°C° 0 mm 1 mps 753 mmHg 98%
    04:00 +22°C° 0 mm 1 mps 753 mmHg 98%
    05:00 +21°C° 0.1 mm 2 mps 753 mmHg 98%
    06:00 +21°C° 0.1 mm 2 mps 753 mmHg 98%
    07:00 +23°C° 0.1 mm 2 mps 753 mmHg 98%
    08:00 +23°C° 0.1 mm 2 mps 752 mmHg 97%
    09:00 +24°C° 0.1 mm 2 mps 752 mmHg 95%
    10:00 +24°C° 0.1 mm 3 mps 752 mmHg 94%
    11:00 +25°C° 0.1 mm 3 mps 752 mmHg 91%
    12:00 +26°C° 0.1 mm 3 mps 751 mmHg 89%
    13:00 +26°C° 0.1 mm 4 mps 751 mmHg 86%
    14:00 +26°C° 0.6 mm 3 mps 750 mmHg 88%
    15:00 +26°C° 0.6 mm 2 mps 750 mmHg 90%
    16:00 +26°C° 0.6 mm 2 mps 750 mmHg 91%
    17:00 +25°C° 1 mm 2 mps 750 mmHg 92%
    18:00 +24°C° 1 mm 2 mps 750 mmHg 93%
    19:00 +24°C° 1 mm 2 mps 750 mmHg 94%
    20:00 +24°C° 1.1 mm 2 mps 750 mmHg 95%
    21:00 +24°C° 1.1 mm 2 mps 750 mmHg 95%
    22:00 +23°C° 1.1 mm 2 mps 750 mmHg 95%
    23:00 +23°C° 0.7 mm 2 mps 750 mmHg 95%

    27 September, Thursday

    Time Temperature Precipitation Wind Pressure Humidity
    00:00 +23°C° 0.7 mm 2 mps 749 mmHg 96%
    01:00 +23°C° 0.7 mm 2 mps 749 mmHg 96%
    02:00 +21°C° 0.3 mm 2 mps 749 mmHg 96%
    03:00 +21°C° 0.3 mm 2 mps 749 mmHg 96%
    04:00 +21°C° 0.3 mm 2 mps 749 mmHg 96%
    05:00 +21°C° 0.4 mm 2 mps 750 mmHg 96%
    06:00 +21°C° 0.4 mm 2 mps 750 mmHg 96%
    07:00 +21°C° 0.4 mm 2 mps 750 mmHg 96%
    08:00 +23°C° 0.2 mm 2 mps 751 mmHg 94%
    09:00 +24°C° 0.2 mm 2 mps 751 mmHg 92%
    10:00 +24°C° 0.2 mm 2 mps 751 mmHg 91%
    11:00 +25°C° 0.2 mm 2 mps 751 mmHg 88%
    12:00 +25°C° 0.2 mm 2 mps 751 mmHg 85%
    13:00 +26°C° 0.2 mm 2 mps 751 mmHg 82%
    14:00 +26°C° 0.2 mm 2 mps 751 mmHg 82%
    15:00 +26°C° 0.2 mm 2 mps 751 mmHg 81%
    16:00 +26°C° 0.2 mm 2 mps 751 mmHg 81%
    17:00 +25°C° 0.1 mm 1 mps 751 mmHg 84%
    18:00 +24°C° 0.1 mm 1 mps 752 mmHg 87%
    19:00 +23°C° 0.1 mm 1 mps 752 mmHg 91%
    20:00 +22°C° 0 mm 1 mps 752 mmHg 92%
    21:00 +22°C° 0 mm 1 mps 752 mmHg 92%
    22:00 +22°C° 0 mm 1 mps 752 mmHg 93%
    23:00 +22°C° 0 mm 1 mps 752 mmHg 94%
    Show more